Location: College Park
(38.9810°N, 76.9370°W)
Time: 09:57:10
(UTC-04:00)

Vanguard 1 Rocket - All Passes

Search period start: 24 May 2018 00:00
Search period end: 03 June 2018 00:00
Orbit: 652 x 4225 km, 34.3° (Epoch: 23 May)

Date Brightness Start Highest point End Pass type
(mag) Time Alt. Az. Time Alt. Az. Time Alt. Az.
24 May - 00:47:39 10° WSW 01:04:04 71° SSE 01:30:02 10° E visible
24 May - 03:14:49 10° W 03:36:47 77° S 04:02:24 10° ESE visible
24 May - 05:45:01 10° W 06:09:20 55° SSW 06:30:12 10° SE daylight
24 May - 08:20:52 10° W 08:37:34 23° SW 08:50:55 10° S daylight
24 May - 21:15:56 10° S 21:24:33 24° SE 21:37:33 10° E visible
24 May - 23:36:45 10° SW 23:50:26 60° SSE 00:14:09 10° E visible
25 May - 02:02:21 10° W 02:21:25 78° S 02:48:01 10° E visible
25 May - 04:30:59 10° W 04:54:36 66° SSW 05:18:13 10° SE visible
25 May - 07:03:22 10° W 07:24:58 36° SW 07:42:32 10° SSE daylight
25 May - 20:13:18 10° ESE 20:14:02 10° ESE 20:14:49 10° ESE daylight
25 May - 22:26:43 10° SSW 22:37:58 45° SE 22:57:49 10° E visible
26 May - 00:50:38 10° WSW 01:06:42 74° SSE 01:32:43 10° E visible
26 May - 03:17:49 10° W 03:39:21 74° SSW 04:05:02 10° ESE visible
26 May - 05:48:00 10° W 06:11:22 49° SW 06:32:14 10° SSE daylight
26 May - 08:25:52 10° W 08:39:14 17° SW 08:50:42 10° SSW daylight
26 May - 21:17:44 10° S 21:26:35 29° SE 21:41:00 10° E visible
26 May - 23:39:37 10° WSW 23:52:58 66° SSE 00:16:47 10° E visible
27 May - 02:05:25 10° W 02:24:07 77° S 02:50:41 10° ESE visible
27 May - 04:33:57 10° W 04:56:53 60° SSW 05:20:31 10° SE visible
27 May - 07:06:56 10° W 07:26:43 30° SW 07:43:41 10° S daylight
27 May - 20:10:56 10° SSE 20:16:02 15° ESE 20:22:39 10° E daylight
27 May - 22:29:21 10° SW 22:40:19 52° SSE 23:00:32 10° E visible
28 May - 00:53:42 10° WSW 01:09:25 76° S 01:35:22 10° E visible
28 May - 03:20:51 10° W 03:41:52 70° SSW 04:07:31 10° ESE visible
28 May - 05:51:09 10° W 06:13:19 42° SW 06:33:56 10° SSE daylight
28 May - 08:33:18 10° WSW 08:40:57 12° WSW 08:48:03 10° SW daylight
28 May - 21:19:57 10° SSW 21:28:46 35° SE 21:44:06 10° E visible
28 May - 23:42:37 10° WSW 23:55:37 70° SSE 00:19:25 10° E visible
29 May - 02:08:31 10° W 02:26:49 75° S 02:53:17 10° ESE visible
29 May - 04:36:59 10° W 04:59:05 54° SSW 05:22:34 10° SE visible
29 May - 07:11:04 10° W 07:28:29 24° SW 07:44:09 10° S daylight
29 May - 20:11:58 10° S 20:18:07 19° SE 20:27:04 10° E daylight
29 May - 22:32:11 10° SW 22:42:51 58° SSE 23:03:12 10° E visible
30 May - 00:56:49 10° W 01:12:12 77° S 01:38:00 10° E visible
30 May - 03:23:55 10° W 03:44:20 65° SSW 04:09:48 10° SE visible
30 May - 05:54:32 10° W 06:15:14 36° SW 06:35:15 10° SSE daylight
30 May - 21:22:28 10° SSW 21:31:09 41° SE 21:47:01 10° E visible
30 May - 23:45:41 10° WSW 23:58:23 73° S 00:22:01 10° E visible
31 May - 02:11:37 10° W 02:29:28 72° SSW 02:55:45 10° ESE visible
31 May - 04:40:08 10° W 05:01:14 48° SW 05:24:19 10° SSE visible
31 May - 07:16:13 10° W 07:30:18 18° SW 07:43:32 10° SSW daylight
31 May - 20:13:46 10° S 20:20:21 25° SE 20:30:44 10° E daylight
31 May - 22:35:08 10° WSW 22:45:32 63° SSE 23:05:50 10° E visible
01 Jun - 00:59:58 10° W 01:15:00 76° S 01:40:34 10° ESE visible
01 Jun - 03:27:01 10° W 03:46:43 59° SSW 04:11:52 10° SE visible
01 Jun - 05:58:17 10° W 06:17:09 29° SW 06:36:01 10° S daylight
01 Jun - 19:08:46 10° SE 19:10:11 10° ESE 19:11:41 10° ESE daylight
01 Jun - 21:25:11 10° SW 21:33:40 48° SSE 21:49:48 10° E visible
01 Jun - 23:48:50 10° WSW 00:01:15 75° S 00:24:38 10° E visible
02 Jun - 02:14:46 10° W 02:32:06 67° SSW 02:58:02 10° ESE visible
02 Jun - 04:43:28 10° W 05:03:22 41° SW 05:25:42 10° SSE visible
02 Jun - 07:23:46 10° WSW 07:32:11 13° SW 07:40:25 10° SW daylight
02 Jun - 20:16:02 10° SSW 20:22:44 30° SE 20:34:00 10° E daylight
02 Jun - 22:38:13 10° WSW 22:48:21 68° SSE 23:08:28 10° E visible
